Time,TemperatureF,DewpointF,PressureIn,WindDirection,WindDirectionDegrees,WindSpeedMPH,WindSpeedGustMPH,Humidity,HourlyPrecipIn,Conditions,Clouds,dailyrainin,SolarRadiationWatts/m^2,SoftwareType,DateUTC
2013-02-16 00:00:00,8.2,1.9,30.25,WNW,287,0.0,2.0,75,0.00,,---,0.00,0.00,VWS V14.01,2013-02-16 06:00:00,
2013-02-16 00:03:00,8.1,1.8,30.25,WNW,287,0.0,0.0,75,0.00,,---,0.00,0.00,VWS V14.01,2013-02-16 06:03:00,
2013-02-16 00:08:00,8.1,1.8,30.25,WNW,287,0.0,0.0,75,0.00,,---,0.00,0.00,VWS V14.01,2013-02-16 06:08:00,
2013-02-16 00:13:00,8.0,1.7,30.25,WNW,287,0.0,1.0,75,0.00,,---,0.00,0.00,VWS V14.01,2013-02-16 06:13:00,
2013-02-16 00:18:00,8.0,1.7,30.25,WNW,287,0.0,1.0,75,0.00,,---,0.00,0.00,VWS V14.01,2013-02-16 06:18:00,
2013-02-16 00:23:00,8.0,1.7,30.25,WNW,287,1.0,1.0,75,0.00,,---,0.00,0.00,VWS V14.01,2013-02-16 06:23:00,
2013-02-16 00:28:00,8.0,1.7,30.25,WNW,287,0.0,1.0,75,0.00,,---,0.00,0.00,VWS V14.01,2013-02-16 06:28:00,
2013-02-16 00:33:00,8.0,1.7,30.25,WNW,287,1.0,1.0,75,0.00,,---,0.00,0.00,VWS V14.01,2013-02-16 06:33:00,
2013-02-16 00:38:00,8.1,2.1,30.25,WNW,287,0.0,1.0,76,0.00,,---,0.00,0.00,VWS V14.01,2013-02-16 06:38:00,
2013-02-16 00:43:00,8.1,2.1,30.25,WNW,287,0.0,2.0,76,0.00,,---,0.00,0.00,VWS V14.01,2013-02-16 06:43:00,
2013-02-16 00:48:00,8.2,2.2,30.25,WNW,287,0.0,2.0,76,0.00,,---,0.00,0.00,VWS V14.01,2013-02-16 06:48:00,
2013-02-16 00:53:00,8.2,2.5,30.25,WNW,287,0.0,2.0,77,0.00,,---,0.00,0.00,VWS V14.01,2013-02-16 06:53:00,
2013-02-16 00:58:00,8.2,2.5,30.25,WNW,287,1.0,2.0,77,0.00,,---,0.00,0.00,VWS V14.01,2013-02-16 06:58:00,
2013-02-16 01:00:00,8.1,2.4,30.25,WNW,287,0.0,2.0,77,0.00,,---,0.00,0.00,VWS V14.01,2013-02-16 07:00:00,
2013-02-16 01:03:00,8.1,2.1,30.25,WNW,287,0.0,1.0,76,0.00,,---,0.00,0.00,VWS V14.01,2013-02-16 07:03:00,
2013-02-16 01:07:00,8.1,2.4,30.24,WNW,287,0.0,1.0,77,0.00,,---,0.00,0.00,VWS V14.01,2013-02-16 07:07:00,
2013-02-16 01:12:00,8.1,2.1,30.24,WNW,287,1.0,1.0,76,0.00,,---,0.00,0.00,VWS V14.01,2013-02-16 07:12:00,
2013-02-16 01:17:00,8.1,2.4,30.24,WNW,287,0.0,2.0,77,0.00,,---,0.00,0.00,VWS V14.01,2013-02-16 07:17:00,
2013-02-16 01:22:00,8.2,2.5,30.24,WNW,287,0.0,2.0,77,0.00,,---,0.00,0.00,VWS V14.01,2013-02-16 07:22:00,
2013-02-16 01:28:00,8.3,2.9,30.24,WNW,287,1.0,2.0,78,0.00,,---,0.00,0.00,VWS V14.01,2013-02-16 07:28:00,
2013-02-16 01:33:00,8.4,3.0,30.24,WNW,287,0.0,2.0,78,0.00,,---,0.00,0.00,VWS V14.01,2013-02-16 07:33:00,
2013-02-16 01:38:00,8.5,3.1,30.24,WNW,287,1.0,2.0,78,0.00,,---,0.00,0.00,VWS V14.01,2013-02-16 07:38:00,
2013-02-16 01:42:00,8.5,2.8,30.23,WNW,287,0.0,2.0,77,0.00,,---,0.00,0.00,VWS V14.01,2013-02-16 07:42:00,
2013-02-16 01:48:00,8.6,2.9,30.23,WNW,287,0.0,2.0,77,0.00,,---,0.00,0.00,VWS V14.01,2013-02-16 07:48:00,
2013-02-16 01:52:00,8.6,2.9,30.23,WNW,287,0.0,2.0,77,0.00,,---,0.00,0.00,VWS V14.01,2013-02-16 07:52:00,
2013-02-16 01:57:00,8.7,3.0,30.23,WNW,287,0.0,2.0,77,0.00,,---,0.00,0.00,VWS V14.01,2013-02-16 07:57:00,
2013-02-16 02:00:00,8.7,3.0,30.23,WNW,287,0.0,2.0,77,0.00,,---,0.00,0.00,VWS V14.01,2013-02-16 08:00:00,
2013-02-16 02:02:00,8.7,3.0,30.23,WNW,287,0.0,0.0,77,0.00,,---,0.00,0.00,VWS V14.01,2013-02-16 08:02:00,
2013-02-16 02:07:00,8.7,3.0,30.23,WNW,287,0.0,0.0,77,0.00,,---,0.00,0.00,VWS V14.01,2013-02-16 08:07:00,
2013-02-16 02:12:00,8.7,2.7,30.23,WNW,287,0.0,1.0,76,0.00,,---,0.00,0.00,VWS V14.01,2013-02-16 08:12:00,
2013-02-16 02:17:00,8.7,3.0,30.23,WNW,287,0.0,1.0,77,0.00,,---,0.00,0.00,VWS V14.01,2013-02-16 08:17:00,
2013-02-16 02:22:00,8.7,3.0,30.22,WNW,287,0.0,1.0,77,0.00,,---,0.00,0.00,VWS V14.01,2013-02-16 08:22:00,
2013-02-16 02:27:00,8.7,3.0,30.22,WNW,287,0.0,1.0,77,0.00,,---,0.00,0.00,VWS V14.01,2013-02-16 08:27:00,
2013-02-16 02:32:00,8.7,3.0,30.22,WNW,287,0.0,1.0,77,0.00,,---,0.00,0.00,VWS V14.01,2013-02-16 08:32:00,
2013-02-16 02:37:00,8.7,3.0,30.22,WNW,287,0.0,1.0,77,0.00,,---,0.00,0.00,VWS V14.01,2013-02-16 08:37:00,
2013-02-16 02:42:00,8.7,3.3,30.22,WNW,287,0.0,1.0,78,0.00,,---,0.00,0.00,VWS V14.01,2013-02-16 08:42:00,
2013-02-16 02:47:00,8.8,3.4,30.22,WNW,287,0.0,1.0,78,0.00,,---,0.00,0.00,VWS V14.01,2013-02-16 08:47:00,
2013-02-16 02:52:00,8.8,3.4,30.21,WNW,287,0.0,1.0,78,0.00,,---,0.00,0.00,VWS V14.01,2013-02-16 08:52:00,
2013-02-16 02:57:00,8.9,3.5,30.21,WNW,287,2.0,2.0,78,0.00,,---,0.00,0.00,VWS V14.01,2013-02-16 08:57:00,
2013-02-16 03:00:00,8.9,3.5,30.21,WNW,287,2.0,3.0,78,0.00,,---,0.00,0.00,VWS V14.01,2013-02-16 09:00:00,
2013-02-16 03:02:00,9.0,3.5,30.21,WNW,287,1.0,2.0,78,0.00,,---,0.00,0.00,VWS V14.01,2013-02-16 09:02:00,
2013-02-16 03:07:00,9.2,3.5,30.21,WNW,287,0.0,3.0,77,0.00,,---,0.00,0.00,VWS V14.01,2013-02-16 09:07:00,
2013-02-16 03:12:00,9.3,3.6,30.21,WNW,287,1.0,3.0,77,0.00,,---,0.00,0.00,VWS V14.01,2013-02-16 09:12:00,
2013-02-16 03:17:00,9.4,3.7,30.21,WNW,287,0.0,3.0,77,0.00,,---,0.00,0.00,VWS V14.01,2013-02-16 09:17:00,
2013-02-16 03:22:00,9.6,3.8,30.20,WNW,287,0.0,3.0,77,0.00,,---,0.00,0.00,VWS V14.01,2013-02-16 09:22:00,
2013-02-16 03:27:00,9.6,3.8,30.20,WNW,287,0.0,3.0,77,0.00,,---,0.00,0.00,VWS V14.01,2013-02-16 09:27:00,
2013-02-16 03:32:00,9.7,4.0,30.20,WNW,287,1.0,3.0,77,0.00,,---,0.00,0.00,VWS V14.01,2013-02-16 09:32:00,
2013-02-16 03:37:00,9.7,4.0,30.20,WNW,287,1.0,3.0,77,0.00,,---,0.00,0.00,VWS V14.01,2013-02-16 09:37:00,
2013-02-16 03:42:00,9.8,4.1,30.20,WNW,287,2.0,3.0,77,0.00,,---,0.00,0.00,VWS V14.01,2013-02-16 09:42:00,
2013-02-16 03:47:00,9.8,3.8,30.20,WNW,287,2.0,3.0,76,0.00,,---,0.00,0.00,VWS V14.01,2013-02-16 09:47:00,
2013-02-16 03:52:00,9.9,3.9,30.20,WNW,287,1.0,3.0,76,0.00,,---,0.00,0.00,VWS V14.01,2013-02-16 09:52:00,
2013-02-16 03:57:00,9.9,3.9,30.20,WNW,287,1.0,3.0,76,0.00,,---,0.00,0.00,VWS V14.01,2013-02-16 09:57:00,
2013-02-16 04:00:00,9.9,3.9,30.20,WNW,287,2.0,3.0,76,0.00,,---,0.00,0.00,VWS V14.01,2013-02-16 10:00:00,
2013-02-16 04:02:00,9.9,3.9,30.20,WNW,287,1.0,2.0,76,0.00,,---,0.00,0.00,VWS V14.01,2013-02-16 10:02:00,
2013-02-16 04:07:00,9.9,3.9,30.20,WNW,287,0.0,2.0,76,0.00,,---,0.00,0.00,VWS V14.01,2013-02-16 10:07:00,
2013-02-16 04:12:00,10.0,4.0,30.20,WNW,287,2.0,2.0,76,0.00,,---,0.00,0.00,VWS V14.01,2013-02-16 10:12:00,
2013-02-16 04:17:00,10.0,4.0,30.20,WNW,287,1.0,2.0,76,0.00,,---,0.00,0.00,VWS V14.01,2013-02-16 10:17:00,
2013-02-16 04:22:00,9.9,3.9,30.20,WNW,287,0.0,2.0,76,0.00,,---,0.00,0.00,VWS V14.01,2013-02-16 10:22:00,
2013-02-16 04:27:00,9.8,3.8,30.20,WNW,287,0.0,2.0,76,0.00,,---,0.00,0.00,VWS V14.01,2013-02-16 10:27:00,
2013-02-16 04:32:00,9.8,3.8,30.20,WNW,287,0.0,2.0,76,0.00,,---,0.00,0.00,VWS V14.01,2013-02-16 10:32:00,
2013-02-16 04:37:00,9.6,3.3,30.20,WNW,287,0.0,2.0,75,0.00,,---,0.00,0.00,VWS V14.01,2013-02-16 10:37:00,
2013-02-16 04:42:00,9.5,3.2,30.20,WNW,287,0.0,2.0,75,0.00,,---,0.00,0.00,VWS V14.01,2013-02-16 10:42:00,
2013-02-16 04:47:00,9.4,3.4,30.20,WNW,287,0.0,2.0,76,0.00,,---,0.00,0.00,VWS V14.01,2013-02-16 10:47:00,
2013-02-16 04:52:00,9.2,3.2,30.20,WNW,287,0.0,2.0,76,0.00,,---,0.00,0.00,VWS V14.01,2013-02-16 10:52:00,
2013-02-16 04:57:00,9.1,3.1,30.20,WNW,287,0.0,2.0,76,0.00,,---,0.00,0.00,VWS V14.01,2013-02-16 10:57:00,
2013-02-16 05:00:00,9.1,3.1,30.20,WNW,287,0.0,2.0,76,0.00,,---,0.00,0.00,VWS V14.01,2013-02-16 11:00:00,
2013-02-16 05:02:00,8.9,2.9,30.20,WNW,287,1.0,1.0,76,0.00,,---,0.00,0.00,VWS V14.01,2013-02-16 11:02:00,
2013-02-16 05:07:00,8.8,3.1,30.20,WNW,287,2.0,3.0,77,0.00,,---,0.00,0.00,VWS V14.01,2013-02-16 11:07:00,
2013-02-16 05:12:00,8.8,3.4,30.20,WNW,287,1.0,3.0,78,0.00,,---,0.00,0.00,VWS V14.01,2013-02-16 11:12:00,
2013-02-16 05:17:00,8.9,3.5,30.20,WNW,287,1.0,3.0,78,0.00,,---,0.00,0.00,VWS V14.01,2013-02-16 11:17:00,
2013-02-16 05:22:00,9.0,3.5,30.20,WNW,287,1.0,3.0,78,0.00,,---,0.00,0.00,VWS V14.01,2013-02-16 11:22:00,
2013-02-16 05:27:00,9.0,3.8,30.20,WSW,250,1.0,4.0,79,0.00,,---,0.00,0.00,VWS V14.01,2013-02-16 11:27:00,
2013-02-16 05:32:00,9.2,4.0,30.20,WSW,250,1.0,4.0,79,0.00,,---,0.00,0.00,VWS V14.01,2013-02-16 11:32:00,
2013-02-16 05:37:00,9.3,4.1,30.20,WSW,250,0.0,4.0,79,0.00,,---,0.00,0.00,VWS V14.01,2013-02-16 11:37:00,
2013-02-16 05:42:00,9.3,4.1,30.20,WSW,250,0.0,4.0,79,0.00,,---,0.00,0.00,VWS V14.01,2013-02-16 11:42:00,
2013-02-16 05:47:00,9.4,4.2,30.20,WSW,250,1.0,4.0,79,0.00,,---,0.00,0.00,VWS V14.01,2013-02-16 11:47:00,
2013-02-16 05:52:00,9.4,3.9,30.20,WSW,250,0.0,4.0,78,0.00,,---,0.00,0.00,VWS V14.01,2013-02-16 11:52:00,
2013-02-16 05:57:00,9.4,4.2,30.20,WSW,250,0.0,4.0,79,0.00,,---,0.00,0.00,VWS V14.01,2013-02-16 11:57:00,
2013-02-16 06:00:00,9.4,4.2,30.20,WSW,250,0.0,4.0,79,0.00,,---,0.00,0.00,VWS V14.01,2013-02-16 12:00:00,
2013-02-16 06:02:00,9.4,4.2,30.20,WNW,285,3.0,3.0,79,0.00,,---,0.00,0.00,VWS V14.01,2013-02-16 12:02:00,
2013-02-16 06:07:00,9.5,4.3,30.20,West,281,2.0,3.0,79,0.00,,---,0.00,0.00,VWS V14.01,2013-02-16 12:07:00,
2013-02-16 06:12:00,9.6,4.4,30.19,West,277,2.0,3.0,79,0.00,,---,0.00,0.00,VWS V14.01,2013-02-16 12:12:00,
2013-02-16 06:17:00,9.7,4.5,30.19,WSW,251,3.0,4.0,79,0.00,,---,0.00,0.00,VWS V14.01,2013-02-16 12:17:00,
2013-02-16 06:22:00,9.8,4.6,30.20,WSW,251,2.0,4.0,79,0.00,,---,0.00,0.00,VWS V14.01,2013-02-16 12:22:00,
2013-02-16 06:27:00,9.8,4.6,30.20,WSW,251,2.0,4.0,79,0.00,,---,0.00,0.00,VWS V14.01,2013-02-16 12:27:00,
2013-02-16 06:32:00,9.9,4.7,30.20,WSW,251,1.0,4.0,79,0.00,,---,0.00,0.00,VWS V14.01,2013-02-16 12:32:00,
2013-02-16 06:37:00,9.9,4.7,30.20,WNW,294,1.0,4.0,79,0.00,,---,0.00,0.00,VWS V14.01,2013-02-16 12:37:00,
2013-02-16 06:42:00,9.9,4.7,30.20,West,269,1.0,4.0,79,0.00,,---,0.00,0.00,VWS V14.01,2013-02-16 12:42:00,
2013-02-16 06:47:00,9.9,4.7,30.20,NW,311,0.0,4.0,79,0.00,,---,0.00,0.00,VWS V14.01,2013-02-16 12:47:00,
2013-02-16 06:52:00,9.9,4.7,30.20,West,273,2.0,5.0,79,0.00,,---,0.00,0.00,VWS V14.01,2013-02-16 12:52:00,
2013-02-16 06:57:00,9.8,4.6,30.20,NNE,28,0.0,5.0,79,0.00,,---,0.00,0.00,VWS V14.01,2013-02-16 12:57:00,
2013-02-16 07:00:00,9.8,4.6,30.20,NW,306,3.0,5.0,79,0.00,,---,0.00,0.00,VWS V14.01,2013-02-16 13:00:00,
2013-02-16 07:02:00,9.9,4.7,30.20,WNW,303,1.0,3.0,79,0.00,,---,0.00,5.00,VWS V14.01,2013-02-16 13:02:00,
2013-02-16 07:07:00,9.9,4.7,30.20,NW,325,1.0,3.0,79,0.00,,---,0.00,7.00,VWS V14.01,2013-02-16 13:07:00,
2013-02-16 07:12:00,9.8,4.6,30.20,WNW,290,0.0,3.0,79,0.00,,---,0.00,11.00,VWS V14.01,2013-02-16 13:12:00,
2013-02-16 07:17:00,9.8,4.6,30.20,WNW,293,0.0,3.0,79,0.00,,---,0.00,14.00,VWS V14.01,2013-02-16 13:17:00,
2013-02-16 07:22:00,9.8,4.6,30.20,WNW,292,0.0,3.0,79,0.00,,---,0.00,19.00,VWS V14.01,2013-02-16 13:22:00,
2013-02-16 07:27:00,9.8,4.9,30.20,WNW,292,1.0,3.0,80,0.00,,---,0.00,25.00,VWS V14.01,2013-02-16 13:27:00,
2013-02-16 07:32:00,9.9,5.0,30.21,WNW,288,1.0,3.0,80,0.00,,---,0.00,32.00,VWS V14.01,2013-02-16 13:32:00,
2013-02-16 07:37:00,10.0,5.1,30.21,NNW,340,2.0,3.0,80,0.00,,---,0.00,37.00,VWS V14.01,2013-02-16 13:37:00,
2013-02-16 07:42:00,10.0,5.1,30.21,NW,311,1.0,5.0,80,0.00,,---,0.00,44.00,VWS V14.01,2013-02-16 13:42:00,
2013-02-16 07:47:00,10.1,5.2,30.21,NNW,338,2.0,5.0,80,0.00,,---,0.00,53.00,VWS V14.01,2013-02-16 13:47:00,
2013-02-16 07:52:00,10.2,5.3,30.21,West,278,1.0,5.0,80,0.00,,---,0.00,56.00,VWS V14.01,2013-02-16 13:52:00,
2013-02-16 07:57:00,10.3,5.4,30.21,NNW,330,0.0,5.0,80,0.00,,---,0.00,62.00,VWS V14.01,2013-02-16 13:57:00,
2013-02-16 08:00:00,10.4,5.5,30.22,NNW,330,1.0,5.0,80,0.00,,---,0.00,65.00,VWS V14.01,2013-02-16 14:00:00,
2013-02-16 08:02:00,10.4,5.5,30.21,WNW,301,2.0,3.0,80,0.00,,---,0.00,70.00,VWS V14.01,2013-02-16 14:02:00,
2013-02-16 08:07:00,10.6,5.7,30.22,NNW,347,0.0,3.0,80,0.00,,---,0.00,76.00,VWS V14.01,2013-02-16 14:07:00,
2013-02-16 08:12:00,10.7,5.8,30.22,NNW,335,2.0,4.0,80,0.00,,---,0.00,84.00,VWS V14.01,2013-02-16 14:12:00,
2013-02-16 08:17:00,10.8,5.9,30.22,WNW,291,2.0,4.0,80,0.00,,---,0.00,81.00,VWS V14.01,2013-02-16 14:17:00,
2013-02-16 08:22:00,10.9,5.9,30.22,WNW,291,1.0,4.0,80,0.00,,---,0.00,97.00,VWS V14.01,2013-02-16 14:22:00,
2013-02-16 08:27:00,11.0,6.1,30.22,NNW,342,1.0,4.0,80,0.00,,---,0.00,111.00,VWS V14.01,2013-02-16 14:27:00,
2013-02-16 08:32:00,11.2,6.2,30.22,NW,319,1.0,4.0,80,0.00,,---,0.00,127.00,VWS V14.01,2013-02-16 14:32:00,
2013-02-16 08:37:00,11.4,6.4,30.22,West,280,1.0,4.0,80,0.00,,---,0.00,137.00,VWS V14.01,2013-02-16 14:37:00,
2013-02-16 08:42:00,11.6,6.6,30.22,North,355,1.0,6.0,80,0.00,,---,0.00,134.00,VWS V14.01,2013-02-16 14:42:00,
2013-02-16 08:47:00,11.7,6.5,30.22,NW,320,1.0,6.0,79,0.00,,---,0.00,127.00,VWS V14.01,2013-02-16 14:47:00,
2013-02-16 08:52:00,11.8,6.6,30.22,West,276,1.0,6.0,79,0.00,,---,0.00,160.00,VWS V14.01,2013-02-16 14:52:00,
2013-02-16 08:57:00,12.1,6.6,30.22,NNW,333,2.0,6.0,78,0.00,,---,0.00,144.00,VWS V14.01,2013-02-16 14:57:00,
2013-02-16 09:00:00,12.1,6.6,30.22,NW,309,3.0,6.0,78,0.00,,---,0.00,156.00,VWS V14.01,2013-02-16 15:00:00,
2013-02-16 09:02:00,12.1,6.3,30.22,West,271,1.0,4.0,77,0.00,,---,0.00,113.00,VWS V14.01,2013-02-16 15:02:00,
2013-02-16 09:07:00,12.2,6.4,30.22,NNW,342,3.0,7.0,77,0.00,,---,0.00,74.00,VWS V14.01,2013-02-16 15:07:00,
2013-02-16 09:12:00,12.2,5.5,30.22,NNE,15,3.0,7.0,74,0.00,,---,0.00,79.00,VWS V14.01,2013-02-16 15:12:00,
2013-02-16 09:17:00,12.2,5.5,30.22,NNE,30,4.0,7.0,74,0.00,,---,0.00,204.00,VWS V14.01,2013-02-16 15:17:00,
2013-02-16 09:22:00,12.3,5.0,30.22,NW,306,3.0,8.0,72,0.00,,---,0.00,174.00,VWS V14.01,2013-02-16 15:22:00,
2013-02-16 09:27:00,12.7,5.1,30.22,WSW,250,3.0,8.0,71,0.00,,---,0.00,211.00,VWS V14.01,2013-02-16 15:27:00,
2013-02-16 09:32:00,12.8,4.2,30.22,NW,305,3.0,8.0,68,0.00,,---,0.00,206.00,VWS V14.01,2013-02-16 15:32:00,
2013-02-16 09:37:00,12.9,4.0,30.22,NNW,342,4.0,8.0,67,0.00,,---,0.00,276.00,VWS V14.01,2013-02-16 15:37:00,
2013-02-16 09:42:00,13.0,3.5,30.22,North,351,3.0,8.0,65,0.00,,---,0.00,206.00,VWS V14.01,2013-02-16 15:42:00,
2013-02-16 09:47:00,13.2,3.3,30.22,NNE,24,6.0,11.0,64,0.00,,---,0.00,380.00,VWS V14.01,2013-02-16 15:47:00,
2013-02-16 09:52:00,13.4,3.2,30.22,North,360,5.0,11.0,63,0.00,,---,0.00,315.00,VWS V14.01,2013-02-16 15:52:00,
2013-02-16 09:57:00,13.8,3.2,30.22,NNW,342,4.0,11.0,62,0.00,,---,0.00,529.00,VWS V14.01,2013-02-16 15:57:00,
2013-02-16 10:00:00,14.0,3.4,30.22,NNW,335,3.0,11.0,62,0.00,,---,0.00,582.00,VWS V14.01,2013-02-16 16:00:00,
2013-02-16 10:02:00,14.2,3.2,30.23,WNW,283,4.0,6.0,61,0.00,,---,0.00,591.00,VWS V14.01,2013-02-16 16:02:00,
2013-02-16 10:07:00,14.3,3.0,30.23,NNE,30,5.0,8.0,60,0.00,,---,0.00,156.00,VWS V14.01,2013-02-16 16:07:00,
2013-02-16 10:12:00,14.1,2.0,30.23,North,5,4.0,8.0,58,0.00,,---,0.00,137.00,VWS V14.01,2013-02-16 16:12:00,
2013-02-16 10:17:00,13.9,2.2,30.23,WSW,258,1.0,8.0,59,0.00,,---,0.00,167.00,VWS V14.01,2013-02-16 16:17:00,
2013-02-16 10:22:00,14.1,2.4,30.23,NNW,343,5.0,9.0,59,0.00,,---,0.00,587.00,VWS V14.01,2013-02-16 16:22:00,
2013-02-16 10:27:00,14.0,2.0,30.23,NNE,28,7.0,10.0,58,0.00,,---,0.00,148.00,VWS V14.01,2013-02-16 16:27:00,
2013-02-16 10:32:00,13.9,1.9,30.23,NNE,15,5.0,10.0,58,0.00,,---,0.00,216.00,VWS V14.01,2013-02-16 16:32:00,
2013-02-16 10:37:00,14.6,2.9,30.23,NNE,22,9.0,10.0,59,0.00,,---,0.00,563.00,VWS V14.01,2013-02-16 16:37:00,
2013-02-16 10:42:00,14.9,2.4,30.23,NNW,347,6.0,10.0,57,0.00,,---,0.00,647.00,VWS V14.01,2013-02-16 16:42:00,
2013-02-16 10:47:00,15.1,2.2,30.23,NNW,348,4.0,10.0,56,0.00,,---,0.00,522.00,VWS V14.01,2013-02-16 16:47:00,
2013-02-16 10:52:00,15.5,3.0,30.23,NNE,15,4.0,10.0,57,0.00,,---,0.00,712.00,VWS V14.01,2013-02-16 16:52:00,
2013-02-16 10:57:00,15.8,2.9,30.22,North,355,6.0,10.0,56,0.00,,---,0.00,216.00,VWS V14.01,2013-02-16 16:57:00,
2013-02-16 11:00:00,15.8,2.5,30.22,NNE,24,3.0,10.0,55,0.00,,---,0.00,216.00,VWS V14.01,2013-02-16 17:00:00,
2013-02-16 11:02:00,15.9,2.6,30.22,NNE,12,2.0,5.0,55,0.00,,---,0.00,752.00,VWS V14.01,2013-02-16 17:02:00,
2013-02-16 11:07:00,16.6,3.7,30.22,NNW,340,4.0,6.0,56,0.00,,---,0.00,195.00,VWS V14.01,2013-02-16 17:07:00,
2013-02-16 11:12:00,16.5,3.2,30.22,NW,326,3.0,6.0,55,0.00,,---,0.00,269.00,VWS V14.01,2013-02-16 17:12:00,
2013-02-16 11:17:00,16.1,2.4,30.22,NNW,346,5.0,8.0,54,0.00,,---,0.00,773.00,VWS V14.01,2013-02-16 17:17:00,
2013-02-16 11:22:00,16.4,3.1,30.21,North,5,4.0,11.0,55,0.00,,---,0.00,868.00,VWS V14.01,2013-02-16 17:22:00,
2013-02-16 11:27:00,16.5,3.5,30.22,ENE,60,4.0,11.0,56,0.00,,---,0.00,870.00,VWS V14.01,2013-02-16 17:27:00,
2013-02-16 11:32:00,16.4,2.7,30.22,North,351,3.0,11.0,54,0.00,,---,0.00,232.00,VWS V14.01,2013-02-16 17:32:00,
2013-02-16 11:37:00,16.0,2.3,30.22,North,355,6.0,11.0,54,0.00,,---,0.00,246.00,VWS V14.01,2013-02-16 17:37:00,
2013-02-16 11:42:00,16.1,2.4,30.22,NNE,29,2.0,11.0,54,0.00,,---,0.00,881.00,VWS V14.01,2013-02-16 17:42:00,
2013-02-16 11:47:00,16.4,2.3,30.22,NNW,327,5.0,11.0,53,0.00,,---,0.00,376.00,VWS V14.01,2013-02-16 17:47:00,
2013-02-16 11:52:00,16.7,3.3,30.21,NNW,332,2.0,11.0,55,0.00,,---,0.00,338.00,VWS V14.01,2013-02-16 17:52:00,
2013-02-16 11:57:00,16.9,3.9,30.21,North,5,4.0,11.0,56,0.00,,---,0.00,299.00,VWS V14.01,2013-02-16 17:57:00,
2013-02-16 12:00:00,16.8,3.0,30.21,North,355,6.0,11.0,54,0.00,,---,0.00,283.00,VWS V14.01,2013-02-16 18:00:00,
2013-02-16 12:02:00,16.6,2.9,30.21,NNW,343,4.0,7.0,54,0.00,,---,0.00,221.00,VWS V14.01,2013-02-16 18:02:00,
2013-02-16 12:07:00,16.3,3.0,30.21,West,278,0.0,7.0,55,0.00,,---,0.00,271.00,VWS V14.01,2013-02-16 18:07:00,
2013-02-16 12:12:00,16.6,3.3,30.21,North,350,4.0,7.0,55,0.00,,---,0.00,343.00,VWS V14.01,2013-02-16 18:12:00,
2013-02-16 12:17:00,17.1,3.7,30.20,West,262,3.0,8.0,55,0.00,,---,0.00,773.00,VWS V14.01,2013-02-16 18:17:00,
2013-02-16 12:22:00,17.7,4.3,30.20,West,264,3.0,8.0,55,0.00,,---,0.00,865.00,VWS V14.01,2013-02-16 18:22:00,
2013-02-16 12:27:00,17.7,3.1,30.20,WNW,293,2.0,8.0,52,0.00,,---,0.00,728.00,VWS V14.01,2013-02-16 18:27:00,
2013-02-16 12:32:00,17.2,3.4,30.20,NW,318,6.0,8.0,54,0.00,,---,0.00,399.00,VWS V14.01,2013-02-16 18:32:00,
2013-02-16 12:37:00,16.8,3.0,30.20,NNW,348,5.0,8.0,54,0.00,,---,0.00,341.00,VWS V14.01,2013-02-16 18:37:00,
2013-02-16 12:42:00,16.9,3.5,30.20,NNW,346,2.0,8.0,55,0.00,,---,0.00,281.00,VWS V14.01,2013-02-16 18:42:00,
2013-02-16 12:47:00,16.7,3.3,30.20,WSW,247,4.0,8.0,55,0.00,,---,0.00,830.00,VWS V14.01,2013-02-16 18:47:00,
2013-02-16 12:52:00,16.6,2.9,30.19,NW,311,2.0,8.0,54,0.00,,---,0.00,295.00,VWS V14.01,2013-02-16 18:52:00,
2013-02-16 12:57:00,17.0,3.6,30.19,NW,318,1.0,8.0,55,0.00,,---,0.00,823.00,VWS V14.01,2013-02-16 18:57:00,
2013-02-16 13:00:00,17.3,3.9,30.19,WNW,283,3.0,8.0,55,0.00,,---,0.00,847.00,VWS V14.01,2013-02-16 19:00:00,
2013-02-16 13:02:00,17.5,3.7,30.19,WSW,254,4.0,6.0,54,0.00,,---,0.00,847.00,VWS V14.01,2013-02-16 19:02:00,
2013-02-16 13:07:00,17.4,4.4,30.19,West,279,3.0,6.0,56,0.00,,---,0.00,366.00,VWS V14.01,2013-02-16 19:07:00,
2013-02-16 13:12:00,17.3,4.3,30.19,NNW,345,4.0,7.0,56,0.00,,---,0.00,812.00,VWS V14.01,2013-02-16 19:12:00,
2013-02-16 13:17:00,17.3,4.3,30.19,NNW,329,3.0,7.0,56,0.00,,---,0.00,768.00,VWS V14.01,2013-02-16 19:17:00,
2013-02-16 13:22:00,17.6,4.6,30.19,WSW,245,3.0,9.0,56,0.00,,---,0.00,775.00,VWS V14.01,2013-02-16 19:22:00,
2013-02-16 13:27:00,17.7,5.1,30.19,WSW,257,4.0,9.0,57,0.00,,---,0.00,842.00,VWS V14.01,2013-02-16 19:27:00,
2013-02-16 13:32:00,17.9,4.5,30.19,SW,222,2.0,9.0,55,0.00,,---,0.00,863.00,VWS V14.01,2013-02-16 19:32:00,
2013-02-16 13:37:00,18.0,5.0,30.19,West,259,3.0,10.0,56,0.00,,---,0.00,772.00,VWS V14.01,2013-02-16 19:37:00,
2013-02-16 13:42:00,18.4,6.1,30.19,West,259,2.0,10.0,58,0.00,,---,0.00,434.00,VWS V14.01,2013-02-16 19:42:00,
2013-02-16 13:47:00,18.4,4.9,30.19,North,360,4.0,10.0,55,0.00,,---,0.00,796.00,VWS V14.01,2013-02-16 19:47:00,
2013-02-16 13:52:00,18.5,5.4,30.19,WNW,303,3.0,10.0,56,0.00,,---,0.00,803.00,VWS V14.01,2013-02-16 19:52:00,
2013-02-16 13:57:00,18.4,4.9,30.19,NW,326,5.0,10.0,55,0.00,,---,0.00,717.00,VWS V14.01,2013-02-16 19:57:00,
2013-02-16 14:00:00,18.0,3.8,30.19,North,355,5.0,10.0,53,0.00,,---,0.00,708.00,VWS V14.01,2013-02-16 20:00:00,
2013-02-16 14:02:00,17.9,4.5,30.19,WNW,294,5.0,7.0,55,0.00,,---,0.00,650.00,VWS V14.01,2013-02-16 20:02:00,
2013-02-16 14:07:00,17.5,3.7,30.19,WSW,248,2.0,7.0,54,0.00,,---,0.00,661.00,VWS V14.01,2013-02-16 20:07:00,
2013-02-16 14:12:00,17.7,3.9,30.19,West,270,2.0,7.0,54,0.00,,---,0.00,668.00,VWS V14.01,2013-02-16 20:12:00,
2013-02-16 14:17:00,18.2,5.2,30.19,North,360,3.0,7.0,56,0.00,,---,0.00,594.00,VWS V14.01,2013-02-16 20:17:00,
2013-02-16 14:22:00,18.5,5.8,30.19,NNE,13,3.0,7.0,57,0.00,,---,0.00,137.00,VWS V14.01,2013-02-16 20:22:00,
2013-02-16 14:27:00,18.2,4.8,30.19,NW,324,2.0,7.0,55,0.00,,---,0.00,114.00,VWS V14.01,2013-02-16 20:27:00,
2013-02-16 14:32:00,17.5,3.7,30.19,North,5,2.0,8.0,54,0.00,,---,0.00,118.00,VWS V14.01,2013-02-16 20:32:00,
2013-02-16 14:37:00,17.2,3.4,30.19,North,5,2.0,8.0,54,0.00,,---,0.00,459.00,VWS V14.01,2013-02-16 20:37:00,
2013-02-16 14:42:00,18.1,5.1,30.19,NNW,336,1.0,8.0,56,0.00,,---,0.00,492.00,VWS V14.01,2013-02-16 20:42:00,
2013-02-16 14:47:00,17.9,4.9,30.19,SW,234,0.0,8.0,56,0.00,,---,0.00,483.00,VWS V14.01,2013-02-16 20:47:00,
2013-02-16 14:52:00,17.9,4.9,30.19,North,11,6.0,8.0,56,0.00,,---,0.00,427.00,VWS V14.01,2013-02-16 20:52:00,
2013-02-16 14:57:00,17.9,4.1,30.19,NNW,334,3.0,8.0,54,0.00,,---,0.00,295.00,VWS V14.01,2013-02-16 20:57:00,
2013-02-16 15:00:00,17.7,4.3,30.19,NNE,17,1.0,8.0,55,0.00,,---,0.00,153.00,VWS V14.01,2013-02-16 21:00:00,
2013-02-16 15:02:00,17.5,3.7,30.19,NNE,17,0.0,3.0,54,0.00,,---,0.00,153.00,VWS V14.01,2013-02-16 21:02:00,
2013-02-16 15:07:00,17.8,4.0,30.19,NW,319,0.0,6.0,54,0.00,,---,0.00,461.00,VWS V14.01,2013-02-16 21:07:00,
2013-02-16 15:12:00,18.4,5.3,30.19,NW,321,3.0,6.0,56,0.00,,---,0.00,427.00,VWS V14.01,2013-02-16 21:12:00,
2013-02-16 15:17:00,18.7,5.6,30.19,NNW,337,2.0,6.0,56,0.00,,---,0.00,408.00,VWS V14.01,2013-02-16 21:17:00,
2013-02-16 15:22:00,18.7,5.6,30.19,West,266,3.0,6.0,56,0.00,,---,0.00,383.00,VWS V14.01,2013-02-16 21:22:00,
2013-02-16 15:27:00,18.6,4.7,30.19,North,355,4.0,8.0,54,0.00,,---,0.00,387.00,VWS V14.01,2013-02-16 21:27:00,
2013-02-16 15:32:00,18.0,3.8,30.19,NW,324,5.0,8.0,53,0.00,,---,0.00,348.00,VWS V14.01,2013-02-16 21:32:00,
2013-02-16 15:37:00,17.9,3.3,30.19,North,355,3.0,8.0,52,0.00,,---,0.00,332.00,VWS V14.01,2013-02-16 21:37:00,
2013-02-16 15:42:00,18.2,4.0,30.19,NNW,345,1.0,8.0,53,0.00,,---,0.00,316.00,VWS V14.01,2013-02-16 21:42:00,
2013-02-16 15:47:00,18.2,3.5,30.19,North,355,3.0,8.0,52,0.00,,---,0.00,290.00,VWS V14.01,2013-02-16 21:47:00,
2013-02-16 15:52:00,18.2,4.0,30.19,North,355,6.0,8.0,53,0.00,,---,0.00,239.00,VWS V14.01,2013-02-16 21:52:00,
2013-02-16 15:57:00,18.1,3.5,30.19,NNW,335,4.0,10.0,52,0.00,,---,0.00,250.00,VWS V14.01,2013-02-16 21:57:00,
2013-02-16 16:00:00,18.2,4.0,30.19,NNW,340,3.0,10.0,53,0.00,,---,0.00,234.00,VWS V14.01,2013-02-16 22:00:00,
2013-02-16 16:02:00,18.3,4.4,30.19,North,360,2.0,4.0,54,0.00,,---,0.00,179.00,VWS V14.01,2013-02-16 22:02:00,
2013-02-16 16:07:00,18.3,4.4,30.19,NNE,28,4.0,8.0,54,0.00,,---,0.00,160.00,VWS V14.01,2013-02-16 22:07:00,
2013-02-16 16:12:00,18.2,3.5,30.19,North,360,3.0,10.0,52,0.00,,---,0.00,125.00,VWS V14.01,2013-02-16 22:12:00,
2013-02-16 16:17:00,18.3,3.6,30.19,North,350,0.0,10.0,52,0.00,,---,0.00,123.00,VWS V14.01,2013-02-16 22:17:00,
2013-02-16 16:22:00,18.2,3.5,30.19,NW,323,3.0,10.0,52,0.00,,---,0.00,142.00,VWS V14.01,2013-02-16 22:22:00,
2013-02-16 16:27:00,17.9,3.3,30.19,North,350,2.0,10.0,52,0.00,,---,0.00,127.00,VWS V14.01,2013-02-16 22:27:00,
2013-02-16 16:32:00,18.1,3.9,30.19,North,350,1.0,10.0,53,0.00,,---,0.00,111.00,VWS V14.01,2013-02-16 22:32:00,
2013-02-16 16:37:00,18.2,4.0,30.19,West,279,3.0,10.0,53,0.00,,---,0.00,97.00,VWS V14.01,2013-02-16 22:37:00,
2013-02-16 16:42:00,18.2,3.5,30.19,WSW,241,0.0,10.0,52,0.00,,---,0.00,81.00,VWS V14.01,2013-02-16 22:42:00,
2013-02-16 16:47:00,18.0,3.3,30.19,NW,316,3.0,10.0,52,0.00,,---,0.00,67.00,VWS V14.01,2013-02-16 22:47:00,
2013-02-16 16:52:00,17.9,2.8,30.19,North,351,0.0,10.0,51,0.00,,---,0.00,49.00,VWS V14.01,2013-02-16 22:52:00,
2013-02-16 16:57:00,17.9,3.3,30.20,NW,325,3.0,10.0,52,0.00,,---,0.00,30.00,VWS V14.01,2013-02-16 22:57:00,
2013-02-16 17:00:00,17.9,3.3,30.20,NNW,348,3.0,10.0,52,0.00,,---,0.00,28.00,VWS V14.01,2013-02-16 23:00:00,
2013-02-16 17:02:00,17.8,3.2,30.20,NW,323,0.0,4.0,52,0.00,,---,0.00,25.00,VWS V14.01,2013-02-16 23:02:00,
2013-02-16 17:07:00,17.8,3.2,30.20,NNW,348,3.0,4.0,52,0.00,,---,0.00,19.00,VWS V14.01,2013-02-16 23:07:00,
2013-02-16 17:12:00,17.8,3.6,30.20,WNW,287,0.0,4.0,53,0.00,,---,0.00,16.00,VWS V14.01,2013-02-16 23:12:00,
2013-02-16 17:17:00,17.6,3.8,30.20,NNW,348,0.0,4.0,54,0.00,,---,0.00,12.00,VWS V14.01,2013-02-16 23:17:00,
2013-02-16 17:22:00,17.4,3.2,30.21,North,5,2.0,4.0,53,0.00,,---,0.00,11.00,VWS V14.01,2013-02-16 23:22:00,
2013-02-16 17:27:00,17.1,2.9,30.21,NW,315,0.0,4.0,53,0.00,,---,0.00,7.00,VWS V14.01,2013-02-16 23:27:00,
2013-02-16 17:32:00,16.9,2.7,30.21,North,5,0.0,4.0,53,0.00,,---,0.00,5.00,VWS V14.01,2013-02-16 23:32:00,
2013-02-16 17:37:00,16.6,2.5,30.21,NW,304,0.0,4.0,53,0.00,,---,0.00,0.00,VWS V14.01,2013-02-16 23:37:00,
2013-02-16 17:42:00,16.4,2.7,30.21,NW,304,0.0,4.0,54,0.00,,---,0.00,0.00,VWS V14.01,2013-02-16 23:42:00,
2013-02-16 17:47:00,16.2,2.9,30.21,NW,304,1.0,4.0,55,0.00,,---,0.00,0.00,VWS V14.01,2013-02-16 23:47:00,
2013-02-16 17:52:00,15.9,2.6,30.21,NW,304,0.0,4.0,55,0.00,,---,0.00,0.00,VWS V14.01,2013-02-16 23:52:00,
2013-02-16 17:57:00,15.7,2.4,30.22,NW,304,0.0,4.0,55,0.00,,---,0.00,0.00,VWS V14.01,2013-02-16 23:57:00,
2013-02-16 18:00:00,15.6,2.3,30.21,NW,304,0.0,4.0,55,0.00,,---,0.00,0.00,VWS V14.01,2013-02-17 00:00:00,
2013-02-16 18:02:00,15.6,2.7,30.22,NW,304,0.0,1.0,56,0.00,,---,0.00,0.00,VWS V14.01,2013-02-17 00:02:00,
2013-02-16 18:07:00,15.4,2.5,30.22,NW,304,0.0,1.0,56,0.00,,---,0.00,0.00,VWS V14.01,2013-02-17 00:07:00,
2013-02-16 18:12:00,15.2,2.7,30.22,NW,304,0.0,1.0,57,0.00,,---,0.00,0.00,VWS V14.01,2013-02-17 00:12:00,
2013-02-16 18:17:00,15.0,3.3,30.22,NW,304,0.0,1.0,59,0.00,,---,0.00,0.00,VWS V14.01,2013-02-17 00:17:00,
2013-02-16 18:22:00,14.7,3.0,30.22,NW,304,1.0,2.0,59,0.00,,---,0.00,0.00,VWS V14.01,2013-02-17 00:22:00,
2013-02-16 18:27:00,14.1,3.5,30.22,NW,304,0.0,2.0,62,0.00,,---,0.00,0.00,VWS V14.01,2013-02-17 00:27:00,
2013-02-16 18:32:00,13.8,3.2,30.22,NW,304,0.0,2.0,62,0.00,,---,0.00,0.00,VWS V14.01,2013-02-17 00:32:00,
2013-02-16 18:37:00,13.5,2.9,30.22,NW,304,0.0,2.0,62,0.00,,---,0.00,0.00,VWS V14.01,2013-02-17 00:37:00,
2013-02-16 18:42:00,13.2,3.0,30.22,NW,304,0.0,2.0,63,0.00,,---,0.00,0.00,VWS V14.01,2013-02-17 00:42:00,
2013-02-16 18:47:00,12.8,2.9,30.22,NW,304,0.0,2.0,64,0.00,,---,0.00,0.00,VWS V14.01,2013-02-17 00:47:00,
2013-02-16 18:52:00,12.4,2.9,30.22,NW,304,0.0,2.0,65,0.00,,---,0.00,0.00,VWS V14.01,2013-02-17 00:52:00,
2013-02-16 18:57:00,11.7,2.5,30.22,NW,304,1.0,2.0,66,0.00,,---,0.00,0.00,VWS V14.01,2013-02-17 00:57:00,
2013-02-16 19:00:00,11.5,2.7,30.22,NW,304,1.0,2.0,67,0.00,,---,0.00,0.00,VWS V14.01,2013-02-17 01:00:00,
2013-02-16 19:02:00,11.3,2.5,30.22,NW,304,1.0,2.0,67,0.00,,---,0.00,0.00,VWS V14.01,2013-02-17 01:02:00,
2013-02-16 19:07:00,10.4,2.0,30.22,NW,304,0.0,3.0,68,0.00,,---,0.00,0.00,VWS V14.01,2013-02-17 01:07:00,
2013-02-16 19:12:00,9.8,1.7,30.22,NW,304,0.0,3.0,69,0.00,,---,0.00,0.00,VWS V14.01,2013-02-17 01:12:00,
2013-02-16 19:17:00,9.4,1.9,30.22,NW,304,1.0,3.0,71,0.00,,---,0.00,0.00,VWS V14.01,2013-02-17 01:17:00,
2013-02-16 19:22:00,9.3,1.8,30.22,NNE,19,3.0,4.0,71,0.00,,---,0.00,0.00,VWS V14.01,2013-02-17 01:22:00,
2013-02-16 19:27:00,9.2,2.0,30.22,NNE,19,1.0,4.0,72,0.00,,---,0.00,0.00,VWS V14.01,2013-02-17 01:27:00,
2013-02-16 19:32:00,9.1,1.9,30.22,NNE,19,0.0,4.0,72,0.00,,---,0.00,0.00,VWS V14.01,2013-02-17 01:32:00,
2013-02-16 19:37:00,9.0,1.8,30.22,NNE,19,0.0,4.0,72,0.00,,---,0.00,0.00,VWS V14.01,2013-02-17 01:37:00,
2013-02-16 19:42:00,8.9,1.7,30.22,NNE,19,0.0,4.0,72,0.00,,---,0.00,0.00,VWS V14.01,2013-02-17 01:42:00,
2013-02-16 19:47:00,8.7,1.8,30.22,NNE,19,0.0,4.0,73,0.00,,---,0.00,0.00,VWS V14.01,2013-02-17 01:47:00,
2013-02-16 19:52:00,8.5,1.6,30.22,NNE,19,1.0,4.0,73,0.00,,---,0.00,0.00,VWS V14.01,2013-02-17 01:52:00,
2013-02-16 19:57:00,7.8,1.2,30.22,NNE,19,2.0,4.0,74,0.00,,---,0.00,0.00,VWS V14.01,2013-02-17 01:57:00,
2013-02-16 20:00:00,7.6,1.1,30.22,NNE,19,0.0,4.0,74,0.00,,---,0.00,0.00,VWS V14.01,2013-02-17 02:00:00,
2013-02-16 20:02:00,7.4,0.9,30.22,NNE,19,0.0,0.0,74,0.00,,---,0.00,0.00,VWS V14.01,2013-02-17 02:02:00,
2013-02-16 20:07:00,7.4,1.1,30.22,NNE,19,0.0,1.0,75,0.00,,---,0.00,0.00,VWS V14.01,2013-02-17 02:07:00,
2013-02-16 20:12:00,7.2,1.0,30.22,NNE,19,2.0,2.0,75,0.00,,---,0.00,0.00,VWS V14.01,2013-02-17 02:12:00,
2013-02-16 20:17:00,7.0,0.8,30.22,NNE,19,0.0,2.0,75,0.00,,---,0.00,0.00,VWS V14.01,2013-02-17 02:17:00,
2013-02-16 20:22:00,6.8,0.9,30.22,NNE,19,1.0,2.0,76,0.00,,---,0.00,0.00,VWS V14.01,2013-02-17 02:22:00,
2013-02-16 20:27:00,6.5,0.6,30.23,NNE,19,0.0,2.0,76,0.00,,---,0.00,0.00,VWS V14.01,2013-02-17 02:27:00,
2013-02-16 20:32:00,6.2,0.3,30.23,NNE,19,1.0,2.0,76,0.00,,---,0.00,0.00,VWS V14.01,2013-02-17 02:32:00,
2013-02-16 20:37:00,5.9,0.3,30.23,NNE,19,0.0,2.0,77,0.00,,---,0.00,0.00,VWS V14.01,2013-02-17 02:37:00,
2013-02-16 20:42:00,5.8,0.4,30.23,NNE,19,0.0,2.0,78,0.00,,---,0.00,0.00,VWS V14.01,2013-02-17 02:42:00,
2013-02-16 20:47:00,5.7,0.3,30.23,NNE,19,0.0,2.0,78,0.00,,---,0.00,0.00,VWS V14.01,2013-02-17 02:47:00,
2013-02-16 20:52:00,5.6,0.2,30.23,NNE,19,0.0,2.0,78,0.00,,---,0.00,0.00,VWS V14.01,2013-02-17 02:52:00,
2013-02-16 20:57:00,5.5,0.1,30.23,NNE,19,0.0,2.0,78,0.00,,---,0.00,0.00,VWS V14.01,2013-02-17 02:57:00,
2013-02-16 21:00:00,5.4,-0.2,30.23,NNE,19,0.0,2.0,77,0.00,,---,0.00,0.00,VWS V14.01,2013-02-17 03:00:00,
2013-02-16 21:02:00,5.3,-0.3,30.23,NNE,19,0.0,0.0,77,0.00,,---,0.00,0.00,VWS V14.01,2013-02-17 03:02:00,
2013-02-16 21:07:00,5.1,-0.5,30.23,NNE,19,0.0,0.0,77,0.00,,---,0.00,0.00,VWS V14.01,2013-02-17 03:07:00,
2013-02-16 21:12:00,4.9,-0.4,30.23,NNE,19,1.0,1.0,78,0.00,,---,0.00,0.00,VWS V14.01,2013-02-17 03:12:00,
2013-02-16 21:17:00,4.7,-0.6,30.23,NNE,19,1.0,2.0,78,0.00,,---,0.00,0.00,VWS V14.01,2013-02-17 03:17:00,
2013-02-16 21:22:00,4.6,-0.7,30.24,NNE,19,0.0,2.0,78,0.00,,---,0.00,0.00,VWS V14.01,2013-02-17 03:22:00,
2013-02-16 21:27:00,4.4,-0.7,30.24,NNE,19,0.0,2.0,79,0.00,,---,0.00,0.00,VWS V14.01,2013-02-17 03:27:00,
2013-02-16 21:32:00,4.3,-0.8,30.24,NNE,19,0.0,2.0,79,0.00,,---,0.00,0.00,VWS V14.01,2013-02-17 03:32:00,
2013-02-16 21:37:00,4.2,-0.9,30.24,NNE,19,0.0,2.0,79,0.00,,---,0.00,0.00,VWS V14.01,2013-02-17 03:37:00,
2013-02-16 21:42:00,4.1,-0.9,30.24,NNE,19,0.0,2.0,79,0.00,,---,0.00,0.00,VWS V14.01,2013-02-17 03:42:00,
2013-02-16 21:47:00,4.0,-1.0,30.24,NNE,19,0.0,2.0,79,0.00,,---,0.00,0.00,VWS V14.01,2013-02-17 03:47:00,
2013-02-16 21:52:00,3.8,-1.2,30.24,NNE,19,0.0,2.0,79,0.00,,---,0.00,0.00,VWS V14.01,2013-02-17 03:52:00,
2013-02-16 21:56:00,3.7,-1.3,30.23,NNE,19,0.0,2.0,79,0.00,,---,0.00,0.00,VWS V14.01,2013-02-17 03:56:00,
2013-02-16 22:00:00,3.6,-1.4,30.23,NNE,19,0.0,2.0,79,0.00,,---,0.00,0.00,VWS V14.01,2013-02-17 04:00:00,
2013-02-16 22:01:00,3.6,-1.4,30.23,NNE,19,0.0,0.0,79,0.00,,---,0.00,0.00,VWS V14.01,2013-02-17 04:01:00,
2013-02-16 22:06:00,3.5,-1.5,30.23,NNE,19,0.0,0.0,79,0.00,,---,0.00,0.00,VWS V14.01,2013-02-17 04:06:00,
2013-02-16 22:11:00,3.4,-1.6,30.23,NNE,19,0.0,0.0,79,0.00,,---,0.00,0.00,VWS V14.01,2013-02-17 04:11:00,
2013-02-16 22:16:00,3.2,-1.8,30.23,NNE,19,1.0,1.0,79,0.00,,---,0.00,0.00,VWS V14.01,2013-02-17 04:16:00,
2013-02-16 22:21:00,3.0,-2.0,30.23,NNE,19,0.0,1.0,79,0.00,,---,0.00,0.00,VWS V14.01,2013-02-17 04:21:00,
2013-02-16 22:26:00,2.9,-1.9,30.23,NNE,19,0.0,1.0,80,0.00,,---,0.00,0.00,VWS V14.01,2013-02-17 04:26:00,
2013-02-16 22:31:00,2.9,-1.9,30.23,NNE,19,0.0,1.0,80,0.00,,---,0.00,0.00,VWS V14.01,2013-02-17 04:31:00,
2013-02-16 22:36:00,2.8,-2.0,30.23,NNE,19,0.0,1.0,80,0.00,,---,0.00,0.00,VWS V14.01,2013-02-17 04:36:00,
2013-02-16 22:41:00,2.8,-2.0,30.23,NNE,19,0.0,1.0,80,0.00,,---,0.00,0.00,VWS V14.01,2013-02-17 04:41:00,
2013-02-16 22:46:00,2.7,-2.0,30.23,NNE,19,0.0,1.0,80,0.00,,---,0.00,0.00,VWS V14.01,2013-02-17 04:46:00,
2013-02-16 22:51:00,2.6,-1.9,30.23,NNE,19,0.0,1.0,81,0.00,,---,0.00,0.00,VWS V14.01,2013-02-17 04:51:00,
2013-02-16 22:56:00,2.5,-2.0,30.23,NNE,19,0.0,1.0,81,0.00,,---,0.00,0.00,VWS V14.01,2013-02-17 04:56:00,
2013-02-16 23:00:00,2.4,-2.1,30.23,NNE,19,1.0,2.0,81,0.00,,---,0.00,0.00,VWS V14.01,2013-02-17 05:00:00,
2013-02-16 23:05:00,2.2,-2.3,30.23,NNE,19,0.0,2.0,81,0.00,,---,0.00,0.00,VWS V14.01,2013-02-17 05:05:00,
2013-02-16 23:10:00,2.0,-2.5,30.23,NNE,19,0.0,2.0,81,0.00,,---,0.00,0.00,VWS V14.01,2013-02-17 05:10:00,
2013-02-16 23:15:00,1.9,-2.6,30.23,NNE,19,0.0,2.0,81,0.00,,---,0.00,0.00,VWS V14.01,2013-02-17 05:15:00,
2013-02-16 23:20:00,1.8,-2.4,30.23,NNE,19,0.0,2.0,82,0.00,,---,0.00,0.00,VWS V14.01,2013-02-17 05:20:00,
2013-02-16 23:25:00,1.7,-2.8,30.23,NNE,19,0.0,2.0,81,0.00,,---,0.00,0.00,VWS V14.01,2013-02-17 05:25:00,
2013-02-16 23:30:00,1.7,-2.8,30.23,NNE,19,0.0,2.0,81,0.00,,---,0.00,0.00,VWS V14.01,2013-02-17 05:30:00,
2013-02-16 23:35:00,1.5,-3.0,30.23,NNE,19,1.0,2.0,81,0.00,,---,0.00,0.00,VWS V14.01,2013-02-17 05:35:00,
2013-02-16 23:40:00,1.3,-2.9,30.23,NNE,19,0.0,2.0,82,0.00,,---,0.00,0.00,VWS V14.01,2013-02-17 05:40:00,
2013-02-16 23:45:00,1.2,-3.0,30.23,NNE,19,0.0,2.0,82,0.00,,---,0.00,0.00,VWS V14.01,2013-02-17 05:45:00,
2013-02-16 23:50:00,1.1,-3.1,30.23,NNE,19,0.0,2.0,82,0.00,,---,0.00,0.00,VWS V14.01,2013-02-17 05:50:00,
2013-02-16 23:55:00,1.0,-3.2,30.23,NNE,19,0.0,2.0,82,0.00,,---,0.00,0.00,VWS V14.01,2013-02-17 05:55:00,